STARLINK-31888, 59788

Orbit data source: Space-Track

STARLINK-31888, 59788 is a payload satellite owned by SpaceX/Seattle (US) in LEO that was launched on Sat, 18 May 2024 UTC via an FALCON 9 launch vehicle from the Air Force Eastern Test Range (AFETR). Payload-class satellites include a variety of spacecraft equipped with specific instruments for various scientific and technological missions. These include communications satellites like Starlink; space stations such as the ISS; scientific satellites like the Hubble; Earth observation satellites from companies like Planet Labs, Umbra, and HawkEye 360; GPS; miniature CubeSats for education and research; and military/defense satellites.

Loading next visibility...
Identifier
59788, 2024-093G
Orbit
LEO
Country
Flag of USUS
Related business
Manufacturer
SpaceX/Seattle
Mission
Operational spacecraft
Bus & Motor
STARLINK V2M, Unknown motor
Mass
730 kg wet, ~700 kg dry
Launch date (UTC)
2024-05-18 (1 year ago)
Launch vehicle
FALCON 9
Launch site
Air Force Eastern Test Range (AFETR)
Object type
Payload
Rocket body
Debris
Shape & HBR
Unknown
Radar Cross Section
Large (>1 m²)

Expand to show TLE details & history
Last TLE update: 19 hours ago

TLE from 19 hours ago
0 STARLINK-31888
1 59788U 24093G   25258.03114726  .00002306  00000-0  93263-4 0  9999
2 59788  43.0020 120.6708 0001491 282.0400  78.0285 15.27598319 75836
Epoch: 2025-09-15T00:44Z
TLE epoch observation values (Epoch: 2025-09-15T00:44:51.123Z)
Latitude
0.00002°
Longitude
115.21617°
Altitude
482.558 km
Speed
7.626 km/s
True Right ascension
08h 02m 40s
True Declination
0° 00' 00"
Sunlit
Object was in daylight at epoch
Visualization orbit readout
Latitude
Unknown
Longitude
Unknown
Altitude
Unknown
Speed
Unknown
Apparent Right ascension
Unknown
Apparent Declination
Unknown
Sunlit
N/A
Visualization observer readout
Local Sidereal Time
12:52:44
Azimuth
Unknown
Elevation
Unknown
Doppler factor
Unknown
Orbital elements
Apogee altitude
485.962 km
Perigee altitude
483.916 km
Semi-major axis
6,863.076 km
Eccentricity
0.00015
Inclination
43.002°
RAAN
120.6708°
Arg. of periapsis
282.04°
True anomaly
78.04521°
Mean anomaly
78.0285°
Eccentric anomaly
78.03686°
Mean motion
3.81738 °/min
Orbital period
94.31 mins
BSTAR
0.000093263
Loading maneuver chart data...
Computing Atmospheric mass density...
Loading historical data...
Loading historical data...
Loading historical data...
Loading historical data...
Loading historical data...
Loading historical data...
Loading historical data...

Documentation

Showing up to 5 results
|